Temp
8 8 8 8 8 8 9 9 9 9 9 9 9 9 10 11 12 13 15 16 15 16 16 16 16 17 17 17 18 18 14 14 17 19 21 23 21 25 25 26 25 27 27 27 28
7 7 8 8 8 8 8 8 9 9 9 8 8 9 9 10 11 14 14 15 15 15 16 16 16 16 16 17 17 16 13 15 18 20 21 22 21 22 23 23 24 26 26 27 27
7 7 7 7 8 8 8 9 9 9 9 9 9 8 9 9 10 12 12 12 12 12 13 15 15 15 15 16 17 15 16 18 19 21 22 21 21 23 21 21 25 24 25 25 26
7 7 7 7 8 8 8 9 9 8 8 9 9 9 9 9 10 13 13 13 13 13 13 14 14 14 13 14 16 15 16 19 19 20 21 20 21 21 21 21 23 23 24 24 24
7 7 7 8 8 9 9 9 8 8 8 9 8 8 9 9 11 11 11 12 13 12 13 12 12 14 12 13 16 15 16 17 19 19 20 20 19 20 20 21 23 23 23 23 23
7 8 8 8 9 9 9 9 9 9 9 9 9 7 5 3 11 11 11 11 11 11 12 12 12 13 14 14 16 16 17 17 18 18 18 19 19 19 20 21 22 22 22 23 23
8 8 8 8 9 9 9 9 9 9 9 9 9 8 6 9 10 10 10 10 10 10 10 12 13 12 14 14 16 16 15 15 15 17 17 19 18 19 20 20 21 21 22 23 23
8 8 8 8 9 9 9 9 9 9 8 9 8 7 8 11 11 11 11 11 11 10 10 12 12 11 11 14 15 15 14 15 17 15 18 19 18 21 22 22 21 22 22 23 24
8 8 8 9 9 10 9 10 9 9 9 9 7 7 9 11 11 12 12 11 11 11 10 11 11 12 13 11 11 12 15 12 15 17 18 18 19 19 22 22 21 22 22 22 23
8 9 9 9 9 9 9 10 10 9 8 8 7 5 11 10 11 11 11 11 12 11 11 10 11 10 9 10 11 12 11 14 14 16 17 16 18 19 20 20 20 21 22 22 23
8 8 9 9 9 9 8 8 7 8 7 7 8 7 9 11 11 11 11 10 11 11 9 11 9 9 11 12 13 12 13 13 14 16 16 16 17 18 18 19 19 20 21 21 21
8 8 9 9 9 8 7 7 6 5 5 9 10 9 11 10 9 11 11 10 10 9 9 8 8 11 12 12 12 11 12 11 13 14 15 14 14 15 16 16 18 19 19 20 21
8 8 9 9 9 8 7 6 6 6 5 7 10 10 11 10 11 11 10 10 9 9 9 7 9 11 12 12 12 11 11 12 12 14 15 14 15 15 16 16 18 19 19 20 20
8 9 9 9 8 8 7 6 6 6 2 7 10 10 10 10 10 11 11 10 10 9 9 8 9 10 11 11 11 10 13 13 14 13 12 15 12 15 16 16 16 17 19 20 21
8 8 9 9 9 8 7 6 6 6 4 8 9 9 8 9 9 11 11 10 9 10 10 9 11 11 10 11 12 11 13 12 12 12 12 13 11 16 17 15 16 17 19 20 21
9 9 9 9 9 8 7 7 7 4 3 7 8 8 8 8 9 11 10 10 10 8 8 9 11 11 10 12 12 13 12 11 12 10 9 12 12 14 15 17 16 16 18 20 21
9 10 10 9 8 8 8 7 4 3 7 7 6 8 7 7 8 9 9 8 7 6 6 8 9 11 12 11 12 11 9 7 7 8 10 13 12 15 15 15 16 16 18 21 22
9 9 9 9 8 8 8 4 2 6 6 7 8 7 6 7 7 7 7 6 9 6 7 6 8 10 11 10 10 9 8 7 9 9 11 14 11 13 15 16 18 18 20 21 22
9 9 9 8 8 8 7 2 3 5 7 7 7 6 5 7 7 6 6 7 8 6 6 7 7 10 9 11 11 10 8 10 10 11 10 10 12 14 17 16 16 17 20 21 22
9 9 8 8 8 7 3 5 5 6 7 7 5 5 4 5 5 5 6 8 8 8 7 8 7 9 10 10 11 11 11 10 7 10 10 10 12 13 15 16 17 16 15 19 19
9 8 7 7 7 7 1 3 5 7 7 6 5 4 5 6 6 5 6 8 8 8 7 6 6 8 9 9 9 10 9 10 8 8 10 10 11 12 15 16 15 14 17 16 16
7 4 7 8 5 0 0 4 6 6 7 6 6 6 5 6 5 5 6 8 9 7 6 6 5 5 7 9 9 9 9 9 8 10 9 8 10 13 15 14 13 14 15 14 13
4 5 7 7 -1 -1 2 4 5 6 6 5 5 6 5 5 4 5 6 8 8 7 6 6 4 5 7 8 7 7 9 9 7 7 7 9 11 14 14 13 14 13 15 13 14
4 1 5 5 3 2 3 5 3 6 5 5 5 5 4 3 4 4 5 7 7 7 8 6 3 4 4 7 6 6 7 7 7 6 9 10 11 14 15 12 14 15 15 13 13
4 1 2 -0 1 1 3 4 4 4 5 5 4 5 4 4 4 5 6 5 6 7 5 4 4 4 5 6 7 6 6 7 7 8 7 9 9 11 11 12 14 15 15 13 13
3 2 2 1 1 1 2 4 5 5 4 5 4 5 4 4 5 4 4 4 4 5 4 3 4 5 6 6 6 6 7 6 7 7 8 9 9 12 13 14 14 16 15 13 13
2 1 0 1 0 0 1 4 3 4 4 5 4 3 4 5 5 5 4 4 4 3 3 4 4 4 3 7 7 5 7 7 8 8 9 8 10 12 12 13 13 15 15 14 14
Height
1517 1515 1513 1511 1508 1506 1504 1502 1500 1498 1495 1494 1490 1488 1485 1483 1480 1480 1476 1478 1480 1480 1480 1480 1482 1486 1487 1486 1489 1489 1497 1500 1490 1487 1477 1471 1473 1467 1466 1464 1466 1467 1468 1471 1473
1517 1515 1512 1509 1507 1505 1502 1501 1499 1497 1495 1492 1489 1485 1484 1480 1478 1474 1474 1470 1472 1472 1472 1476 1479 1484 1483 1481 1484 1484 1492 1486 1474 1473 1472 1469 1470 1466 1464 1464 1462 1462 1465 1470 1472
1517 1514 1512 1509 1506 1503 1500 1498 1495 1493 1491 1488 1485 1483 1480 1479 1475 1471 1469 1469 1469 1468 1469 1472 1473 1479 1479 1477 1474 1474 1473 1470 1466 1468 1470 1468 1468 1464 1462 1464 1458 1459 1460 1465 1467
1517 1514 1511 1507 1504 1501 1497 1495 1493 1491 1489 1487 1485 1483 1480 1481 1481 1470 1470 1469 1466 1466 1466 1466 1469 1472 1472 1471 1468 1472 1464 1465 1463 1467 1469 1468 1466 1460 1456 1457 1455 1456 1458 1460 1465
1517 1513 1510 1506 1503 1499 1497 1494 1492 1489 1486 1483 1480 1479 1479 1477 1470 1468 1465 1464 1464 1465 1464 1465 1466 1466 1465 1464 1466 1462 1460 1461 1462 1463 1464 1467 1460 1463 1450 1454 1453 1455 1455 1457 1458
1517 1513 1510 1506 1503 1500 1497 1495 1492 1488 1485 1482 1479 1477 1478 1478 1468 1464 1460 1461 1461 1459 1459 1462 1461 1463 1462 1461 1460 1454 1456 1459 1460 1460 1462 1463 1456 1462 1448 1453 1452 1453 1450 1450 1451
1516 1512 1509 1505 1501 1498 1496 1494 1491 1487 1484 1481 1479 1476 1474 1467 1464 1463 1460 1458 1458 1456 1452 1457 1459 1460 1457 1458 1455 1454 1457 1456 1458 1458 1460 1460 1457 1442 1447 1451 1448 1445 1444 1444 1443
1514 1511 1507 1504 1500 1498 1495 1492 1490 1486 1483 1479 1477 1474 1467 1463 1461 1459 1457 1456 1456 1453 1450 1453 1458 1456 1457 1455 1453 1453 1454 1458 1447 1454 1453 1455 1439 1429 1438 1443 1440 1438 1437 1437 1436
1513 1509 1506 1502 1498 1496 1493 1490 1487 1482 1479 1478 1476 1475 1467 1463 1459 1456 1454 1453 1453 1452 1450 1451 1452 1451 1453 1457 1460 1453 1447 1452 1450 1442 1448 1449 1423 1430 1435 1436 1432 1432 1432 1432 1430
1511 1507 1504 1500 1497 1495 1492 1489 1484 1482 1480 1477 1476 1477 1467 1463 1459 1455 1452 1449 1449 1450 1447 1449 1450 1448 1448 1452 1449 1447 1452 1444 1447 1440 1442 1444 1421 1430 1432 1432 1427 1429 1425 1423 1421
1508 1505 1502 1499 1496 1494 1493 1489 1486 1483 1480 1479 1475 1474 1466 1463 1458 1455 1450 1448 1445 1449 1452 1447 1450 1441 1436 1439 1441 1443 1445 1446 1443 1438 1439 1436 1428 1428 1428 1425 1423 1420 1419 1417 1415
1507 1504 1501 1498 1496 1495 1494 1493 1495 1496 1484 1474 1471 1469 1464 1462 1456 1453 1450 1447 1443 1447 1447 1451 1446 1439 1439 1441 1442 1444 1446 1448 1443 1437 1439 1437 1433 1427 1425 1419 1416 1413 1411 1410 1409
1507 1502 1500 1497 1495 1495 1493 1493 1492 1490 1488 1473 1469 1467 1465 1462 1455 1451 1450 1445 1443 1443 1445 1450 1442 1437 1436 1437 1440 1441 1445 1446 1447 1437 1433 1437 1424 1420 1413 1408 1406 1404 1404 1403 1402
1505 1500 1498 1496 1496 1493 1491 1490 1488 1486 1491 1477 1469 1467 1463 1457 1453 1450 1447 1447 1442 1440 1439 1441 1434 1435 1436 1436 1438 1446 1438 1438 1439 1444 1449 1434 1435 1414 1408 1402 1400 1399 1395 1393 1395
1503 1498 1495 1493 1493 1491 1490 1487 1484 1485 1500 1475 1470 1467 1464 1462 1456 1449 1446 1443 1440 1436 1438 1434 1429 1430 1434 1432 1432 1436 1435 1440 1442 1445 1445 1439 1448 1394 1395 1395 1393 1390 1385 1385 1383
1499 1493 1492 1492 1491 1490 1486 1484 1483 1493 1501 1478 1472 1470 1466 1460 1455 1448 1446 1441 1438 1435 1434 1430 1426 1426 1426 1426 1426 1428 1432 1438 1441 1447 1454 1437 1445 1393 1396 1385 1384 1380 1378 1378 1378
1495 1490 1488 1490 1490 1487 1484 1482 1493 1500 1484 1480 1475 1471 1469 1464 1455 1448 1445 1441 1441 1444 1436 1429 1423 1420 1421 1425 1425 1428 1436 1456 1460 1460 1440 1422 1437 1390 1382 1380 1379 1379 1374 1374 1372
1493 1490 1490 1490 1489 1487 1483 1484 1505 1487 1486 1479 1475 1471 1471 1463 1457 1450 1446 1446 1439 1442 1435 1435 1425 1417 1414 1420 1424 1428 1430 1442 1439 1441 1430 1418 1420 1393 1376 1371 1369 1372 1372 1369 1366
1492 1491 1490 1490 1489 1487 1485 1498 1498 1489 1483 1480 1474 1472 1472 1464 1462 1456 1449 1445 1440 1443 1440 1430 1430 1417 1414 1412 1415 1421 1429 1419 1427 1424 1430 1418 1396 1384 1371 1371 1370 1371 1368 1364 1360
1492 1491 1491 1490 1489 1487 1489 1492 1488 1483 1480 1478 1481 1476 1474 1466 1464 1461 1452 1442 1440 1439 1437 1431 1429 1420 1419 1416 1411 1413 1413 1426 1433 1429 1427 1410 1400 1391 1376 1378 1373 1371 1367 1358 1354
1492 1491 1491 1490 1489 1488 1500 1494 1486 1480 1480 1478 1476 1476 1471 1466 1462 1460 1451 1442 1439 1438 1437 1436 1436 1424 1418 1417 1417 1416 1416 1417 1421 1424 1418 1411 1400 1376 1370 1373 1375 1372 1364 1356 1349
1493 1493 1491 1490 1491 1494 1498 1492 1487 1479 1478 1475 1471 1468 1468 1465 1462 1459 1450 1443 1439 1439 1439 1437 1440 1436 1424 1417 1416 1417 1416 1416 1423 1414 1413 1418 1406 1369 1372 1372 1372 1369 1363 1356 1353
1495 1493 1492 1490 1501 1501 1493 1490 1486 1481 1478 1475 1473 1468 1466 1467 1465 1455 1448 1441 1440 1440 1439 1437 1442 1441 1425 1421 1419 1421 1417 1417 1420 1421 1417 1414 1398 1368 1365 1369 1371 1367 1363 1360 1359
1499 1498 1493 1492 1495 1496 1493 1486 1486 1480 1476 1475 1471 1467 1467 1464 1459 1453 1445 1440 1438 1436 1435 1437 1442 1438 1442 1423 1425 1427 1420 1419 1419 1424 1407 1399 1399 1375 1372 1379 1373 1368 1367 1362 1361
1503 1503 1502 1500 1496 1495 1493 1486 1483 1480 1476 1472 1470 1467 1466 1459 1451 1447 1441 1437 1434 1433 1435 1437 1440 1438 1433 1428 1423 1421 1418 1415 1414 1408 1414 1403 1402 1382 1384 1381 1376 1371 1365 1363 1363
1506 1505 1502 1498 1495 1493 1488 1482 1478 1477 1478 1469 1468 1463 1462 1456 1450 1442 1441 1437 1433 1430 1432 1432 1433 1431 1426 1421 1419 1416 1407 1407 1406 1404 1401 1403 1400 1388 1380 1375 1372 1368 1363 1362 1361
1506 1505 1504 1497 1494 1494 1489 1481 1479 1478 1470 1468 1466 1461 1454 1446 1441 1435 1431 1426 1429 1428 1428 1428 1429 1430 1430 1414 1414 1414 1401 1395 1389 1388 1392 1398 1391 1381 1378 1373 1368 1365 1362 1359 1360
Wind_Speed
14 14 14 15 15 15 15 14 15 16 17 18 19 20 21 22 23 25 28 25 20 22 16 19 12 11 17 15 13 7 2 5 7 8 5 3 1 10 3 4 5 2 8 9 3
15 15 16 17 18 18 17 17 16 16 17 19 20 21 22 23 27 26 18 22 25 24 24 21 19 16 12 12 12 7 5 9 6 7 4 5 3 9 4 10 6 12 6 9 5
17 17 18 19 20 20 20 19 18 17 18 19 21 23 24 23 21 3 3 4 8 8 12 23 20 20 15 11 13 9 11 11 7 16 18 10 12 13 4 5 10 12 22 14 15
17 18 19 19 21 21 21 20 20 21 21 21 20 21 21 18 4 4 9 17 22 20 14 15 19 9 8 11 14 5 17 19 11 14 8 6 14 16 23 14 27 30 29 33 30
18 18 19 20 20 19 18 17 17 19 20 22 21 20 18 14 15 12 12 16 18 17 11 8 23 12 6 6 8 14 7 18 27 18 18 15 19 15 31 32 36 35 35 38 37
18 18 19 20 18 15 13 14 17 20 21 22 21 17 10 6 18 22 22 21 21 20 15 8 8 20 9 6 17 2 14 15 15 15 13 10 18 12 15 23 26 28 36 38 38
21 21 21 22 21 18 13 14 15 20 18 15 21 20 16 20 14 13 13 15 23 21 21 18 13 12 5 3 13 10 6 3 8 10 10 15 20 28 34 28 32 38 41 40 39
23 23 22 23 20 17 16 17 17 20 18 19 27 14 12 14 24 12 25 26 23 27 14 17 11 15 16 9 5 4 5 16 14 8 7 14 29 20 22 26 33 36 36 35 35
24 23 22 22 21 20 19 20 20 24 17 19 15 8 10 19 23 23 22 21 19 20 18 11 13 11 5 5 4 4 16 9 5 8 10 13 31 7 16 18 24 28 32 35 39
24 23 21 21 19 18 17 20 20 6 11 14 7 7 8 23 27 25 20 8 12 22 9 7 9 4 4 7 13 9 5 2 5 5 15 14 32 14 21 23 25 27 36 39 40
23 21 19 18 16 15 18 20 19 5 22 11 18 17 25 24 26 23 20 10 6 4 4 6 4 14 15 16 5 4 2 1 3 4 4 17 21 16 13 21 22 30 34 38 42
23 21 18 15 11 9 13 7 9 11 12 17 16 17 19 20 14 25 16 3 4 4 2 5 10 8 5 7 10 6 1 3 5 8 4 7 12 9 8 14 22 29 30 33 39
23 22 18 11 6 9 10 6 12 15 4 13 12 10 13 20 11 16 10 3 3 4 4 6 8 3 7 5 5 4 9 3 6 8 12 8 18 12 8 16 27 31 33 38 37
23 22 17 8 3 13 3 12 15 7 3 5 7 4 22 23 3 10 11 6 2 4 3 5 7 6 6 9 7 5 3 1 2 3 8 2 9 15 15 18 14 19 29 32 37
25 20 13 7 9 12 13 16 11 3 4 11 4 8 32 4 15 5 21 6 6 7 3 11 4 3 5 6 7 9 8 8 7 6 3 3 5 13 5 11 12 16 31 36 45
26 20 11 2 8 12 16 18 4 5 4 7 9 12 15 13 13 7 14 11 7 5 7 24 7 5 7 7 9 6 6 4 1 2 7 7 6 21 9 12 7 15 25 32 31
26 14 1 2 7 13 18 3 4 4 4 5 8 12 17 5 9 5 10 7 2 5 5 10 14 11 5 3 2 5 5 2 1 2 12 12 9 24 4 6 4 9 15 18 18
19 8 5 3 6 12 16 4 5 1 5 5 9 16 4 6 5 7 7 5 2 7 4 3 2 6 5 11 7 7 7 5 6 6 5 6 12 8 11 13 18 14 18 24 27
15 4 4 4 7 13 9 4 5 4 3 6 13 3 4 4 3 6 4 3 4 6 5 2 4 5 2 2 9 4 4 7 3 3 1 5 7 8 16 10 8 9 19 24 25
16 4 4 4 8 12 5 2 3 4 6 5 3 3 4 6 6 6 4 2 4 3 3 3 4 7 6 5 5 4 4 3 1 4 5 6 6 6 6 2 4 8 11 27 25
12 2 4 6 8 4 3 4 5 9 9 3 4 4 7 7 4 4 5 7 1 5 6 4 0 5 2 3 4 1 1 2 2 5 4 2 5 6 15 4 8 10 20 28 11
9 2 5 6 4 2 1 5 10 7 5 5 4 8 7 4 5 4 6 3 7 3 5 1 1 4 5 5 5 2 3 1 4 8 4 3 6 6 6 7 8 13 23 15 4
12 5 5 8 2 3 5 5 6 4 5 3 4 3 3 3 5 4 6 5 14 2 4 1 1 3 5 3 5 2 3 3 1 0 5 4 7 5 9 14 18 14 19 5 7
7 4 4 6 4 2 4 7 5 7 7 3 5 6 3 4 7 6 8 6 5 3 9 1 2 5 5 2 2 4 8 8 3 3 5 10 9 22 19 12 16 21 19 4 8
8 2 3 4 3 6 4 5 8 6 4 6 3 4 8 7 12 14 13 7 9 6 1 4 4 3 8 11 8 8 13 13 15 13 8 3 2 16 14 15 18 23 21 11 14
7 5 4 7 13 4 4 3 8 8 5 10 7 15 13 13 13 21 18 8 9 5 7 6 4 2 11 10 11 14 17 16 15 19 16 14 15 16 19 20 17 19 21 16 21
9 4 4 6 4 2 3 4 8 16 9 12 16 16 15 18 18 30 32 32 15 5 6 5 2 1 4 5 4 11 16 22 18 14 13 14 11 15 13 12 8 17 20 18 25
Wind_Direction
359 358 356 354 352 349 346 344 340 338 337 334 331 327 326 321 311 300 286 284 274 258 247 244 253 218 195 201 200 183 130 221 215 176 245 218 287 234 283 300 355 46 326 346 101
5 2 360 356 352 348 344 341 340 339 334 328 324 325 324 329 325 308 278 264 256 254 249 238 235 226 210 204 199 173 179 217 203 202 230 265 291 316 348 329 283 296 312 304 216
4 2 359 354 349 344 341 339 338 333 329 326 325 321 323 331 326 276 25 108 359 338 289 236 227 222 222 203 193 194 221 218 237 227 242 277 304 287 318 288 267 288 302 292 264
359 357 352 349 345 342 341 341 338 334 331 331 327 321 325 338 322 9 299 290 298 305 317 250 217 208 193 206 201 219 222 220 235 234 249 243 278 293 286 259 285 294 291 291 289
354 351 349 347 345 346 344 343 342 336 333 333 329 323 332 316 292 319 303 279 289 300 291 266 214 216 192 214 198 234 210 224 239 242 245 262 259 259 274 281 281 283 280 279 284
352 352 350 348 350 352 350 348 341 326 330 333 333 328 326 270 332 332 311 287 298 299 274 244 221 225 289 215 203 175 227 238 241 236 245 249 269 256 254 268 265 268 271 275 278
355 353 350 350 352 356 351 353 356 342 340 341 340 328 300 298 329 0 11 6 355 336 278 243 245 228 289 298 252 260 276 261 221 229 237 239 266 251 253 258 265 269 269 273 275
354 352 350 349 347 351 343 340 345 335 324 326 334 329 285 344 341 326 326 322 331 344 302 246 221 244 233 280 289 202 170 242 236 179 233 167 257 251 247 242 248 253 257 264 270
351 350 350 348 344 346 342 336 337 324 314 313 329 318 292 339 340 339 321 315 324 329 327 236 243 216 181 196 346 240 237 217 247 214 198 192 252 203 233 247 254 263 271 272 274
351 348 348 346 340 341 337 332 339 339 327 318 307 315 317 323 334 333 330 304 300 323 332 248 230 195 163 175 213 218 233 194 193 212 197 207 245 254 266 268 264 267 267 270 272
350 348 347 345 336 340 337 345 11 349 327 283 286 278 287 330 331 329 348 274 246 337 335 268 194 217 215 224 252 38 68 83 335 265 216 224 250 252 252 260 262 264 265 267 270
349 345 345 345 333 351 351 40 13 330 300 295 287 282 316 331 302 332 325 267 177 191 356 331 258 240 235 206 248 270 280 248 266 258 227 285 279 275 259 257 251 256 260 263 270
349 339 342 351 339 330 344 11 336 332 264 293 317 302 335 340 308 328 337 287 241 176 217 202 263 319 208 214 213 206 229 226 221 296 286 291 283 271 248 242 250 257 259 261 262
347 337 338 354 1 338 2 339 329 315 47 283 334 357 339 339 284 321 328 277 271 241 249 210 252 228 244 233 221 217 175 299 314 177 257 45 283 279 271 262 252 254 259 261 266
343 333 331 330 338 341 334 332 327 156 352 312 345 330 340 326 303 300 336 235 253 271 342 270 224 233 225 209 182 247 194 226 236 267 310 260 305 273 218 258 256 253 256 256 261
339 325 315 283 351 346 334 333 127 47 270 333 328 332 342 315 318 296 327 281 277 258 241 241 249 187 223 244 215 205 179 180 156 130 257 205 191 277 243 250 232 243 251 259 266
344 341 358 135 357 351 337 348 40 112 338 317 315 328 326 290 314 317 328 324 42 312 12 322 228 236 230 238 237 189 119 128 128 187 233 176 190 236 254 309 238 275 274 269 269
352 10 87 49 348 346 341 55 75 253 270 289 308 310 281 352 293 304 315 326 212 238 229 286 225 178 201 199 193 201 172 166 171 188 227 142 226 245 226 249 267 280 284 286 282
359 59 64 21 346 347 340 51 201 225 264 309 319 300 283 311 275 342 301 274 313 74 326 246 289 332 328 257 155 172 163 214 24 287 124 213 277 286 280 281 282 299 303 301 303
356 107 46 9 341 338 61 266 231 232 298 296 250 290 286 312 324 350 296 268 349 352 190 308 302 140 272 344 268 163 170 106 317 208 229 249 256 236 292 339 331 331 296 304 309
357 97 8 343 334 350 118 248 283 292 320 278 245 265 260 303 278 275 272 297 125 309 330 3 156 295 345 203 211 24 262 223 198 176 210 298 267 228 221 324 351 313 312 327 279
360 43 18 343 30 47 25 310 304 286 309 279 279 254 247 291 277 267 249 215 317 320 307 5 302 277 263 274 332 5 293 258 199 243 264 123 286 313 77 52 10 336 338 346 189
346 312 348 357 70 335 306 299 276 302 315 292 275 259 12 296 294 262 274 304 328 295 251 217 256 311 326 14 39 359 315 269 223 301 218 224 245 256 338 6 341 332 327 342 157
353 355 344 55 87 121 306 316 297 297 284 301 274 278 299 266 237 271 265 297 279 282 278 259 205 214 214 229 165 292 294 306 221 254 263 245 299 280 301 340 330 328 323 235 168
7 11 352 305 322 316 272 281 282 305 282 289 264 228 295 295 289 265 267 273 268 276 30 155 241 231 261 273 279 256 266 276 270 253 254 311 269 286 309 311 300 310 313 202 178
3 357 332 287 291 278 273 266 289 318 306 300 257 306 301 281 274 286 282 259 256 203 184 183 244 305 287 259 250 264 264 250 255 254 259 258 270 279 275 281 282 307 313 204 187
346 306 286 284 294 360 251 302 307 313 285 275 290 299 293 288 294 283 273 267 250 215 199 176 208 188 255 242 300 274 253 250 248 225 218 234 245 260 275 277 282 308 302 211 194